Home   Weather   Chevak   Past weeks
Flag for USA

Past Weather in Chevak, Alaska, USA — Yesterday and Last 2 Weeks

Now
34 °F

Clear.


Feels Like: 25 °F
Forecast: 35 / 32 °F
Wind: 12 mph from North

Location: Hooper Bay Weather Reporting System

Current Time: Oct 22, 2019 at 11:40:43 pm

Latest Report: Oct 22, 2019 at 10:56 pm


Visibility: 10 mi

Pressure: 29.52 "Hg

Humidity: 92%

Dew Point: 32 °F

Location of ChevakLocation

Past Weather in Chevak — Graph

°F

Chevak Temperature Yesterday

Maximum temperature yesterday: 34 °F (at 3:56 pm)
Minimum temperature yesterday: 29 °F (at 10:56 am)
Average temperature yesterday: 32 °F

High & Low Weather Summary for the Past Weeks

 TemperatureHumidityPressure
High48 °F (Oct 7, 9:06 pm)100% (Oct 16, 6:01 am)30.32 "Hg (Oct 16, 6:01 am)
Low23 °F (Oct 19, 9:56 am)60% (Oct 11, 4:56 pm)29.02 "Hg (Oct 16, 3:56 pm)
Average35 °F87%29.63 "Hg
* Reported Oct 7 9:06 pm — Oct 22 9:56 pm, Chevak. Weather by CustomWeather, © 2019

Note: Actual official high and low records may vary slightly from our data, if they occured in-between our weather recording intervals... More about our weather records

Advertising

Chevak Weather History for the Previous 24 Hours

Scroll right to see more
 ConditionsComfort  
Time TempWeatherWind HumidityBarometerVisibility
9:56 pm
Tue, Oct 22
36 °FClear.17 mph97%29.55 "Hg10 mi
8:56 pm36 °FOvercast.15 mph97%29.56 "Hg10 mi
7:56 pm37 °FMostly cloudy.15 mph96%29.58 "Hg10 mi
7:13 pm37 °FBroken clouds.12 mph100%29.59 "Hg10 mi
6:56 pm38 °FMostly cloudy.13 mph97%29.58 "Hg10 mi
6:31 pm39 °FMore clouds than sun.13 mph93%29.59 "Hg10 mi
5:56 pm39 °FMostly cloudy.13 mph100%29.59 "Hg10 mi
4:56 pm39 °FLow clouds.10 mph96%29.61 "Hg10 mi
3:56 pm38 °FFog.9 mph97%29.62 "Hg1 mi
3:41 pm37 °FFog.10 mph100%29.62 "Hg2 mi
3:08 pm37 °FFog.12 mph100%29.63 "Hg3 mi
2:56 pm38 °FFog.10 mph97%29.63 "Hg2 mi
1:56 pm37 °FMostly cloudy.10 mph96%29.65 "Hg10 mi
1:37 pm36 °FCloudy.9 mph100%29.65 "Hg10 mi
12:56 pm35 °FMore clouds than sun.8 mph96%29.66 "Hg10 mi
12:24 pm34 °FFog.8 mph93%29.65 "Hg3 mi
11:56 am33 °FFog.8 mph96%29.64 "Hg0 mi
11:16 am34 °FFog.7 mph100%29.64 "Hg0 mi
10:56 am34 °FFog.10 mph97%29.63 "Hg1 mi
10:32 am34 °FFog.9 mph100%29.63 "Hg1 mi
9:56 am34 °FFog.7 mph97%29.62 "Hg2 mi
9:18 am34 °FFog.8 mph100%29.62 "Hg1 mi
8:56 am33 °FFog.7 mph96%29.62 "Hg1 mi
8:15 am32 °FMostly cloudy.6 mph93%29.60 "Hg9 mi
7:56 am33 °FMostly cloudy.6 mph96%29.61 "Hg9 mi
6:56 am33 °FLow clouds.6 mph96%29.60 "Hg10 mi
5:56 am33 °FLow clouds.6 mph96%29.60 "Hg10 mi
4:56 am34 °FLow clouds.6 mph92%29.59 "Hg10 mi
3:56 am33 °FMostly cloudy.6 mph96%29.59 "Hg10 mi
3:37 am34 °FMostly cloudy.8 mph93%29.59 "Hg10 mi
2:56 am34 °FLight rain. Overcast.9 mph92%29.58 "Hg10 mi
2:22 am34 °FMostly cloudy.9 mph93%29.58 "Hg10 mi
2:09 am34 °FMostly cloudy.8 mph93%29.58 "Hg10 mi
1:56 am34 °FMostly cloudy.7 mph92%29.58 "Hg10 mi
12:56 am33 °FOvercast.7 mph96%29.58 "Hg10 mi
11:56 pm
Mon, Oct 21
33 °FMostly cloudy.8 mph96%29.57 "Hg10 mi
11:34 pm34 °FMostly cloudy.10 mph87%29.57 "Hg10 mi
11:12 pm34 °FPassing clouds.9 mph87%29.56 "Hg10 mi
Weather by CustomWeather, © 2019

See weather overview